This is the latest recevied weather packets stored in our database for station/object DB0WUN-13. If no packets are shown the sender has not sent any weather packets the latest 10 day(s).
| Time | Temp. | Humidity | Pressure | Rain* | Wind** | Luminosity | Snow |
|---|---|---|---|---|---|---|---|
| 1777198870 | 9.44° C | 51% | 1023.6 hPa | 0 mm | - | 861 W/m² | - |
| 1777198798 | 9.44° C | 52% | 1023.6 hPa | 0 mm | - | 865 W/m² | - |
| 1777198738 | 10° C | 53% | 1023.6 hPa | 0 mm | - | 863 W/m² | - |
| 1777198678 | 9.44° C | 54% | 1023.6 hPa | 0 mm | - | 867 W/m² | - |
| 1777198621 | 9.44° C | 56% | 1023.5 hPa | 0 mm | - | 865 W/m² | - |
| 1777198575 | 9.44° C | 56% | 1023.6 hPa | 0 mm | - | 865 W/m² | - |
| 1777198515 | 8.89° C | 54% | 1023.5 hPa | 0 mm | - | 863 W/m² | - |
| 1777198480 | 8.89° C | 55% | 1023.6 hPa | 0 mm | - | 861 W/m² | - |
| 1777198451 | 8.89° C | 55% | 1023.6 hPa | 0 mm | - | 861 W/m² | - |
| 1777198416 | 8.89° C | 54% | 1023.6 hPa | 0 mm | - | 858 W/m² | - |
| 1777198377 | 8.89° C | 52% | 1023.7 hPa | 0 mm | - | 858 W/m² | - |
| 1777198189 | 9.44° C | 55% | 1023.6 hPa | 0 mm | - | 858 W/m² | - |
| 1777198133 | 9.44° C | 54% | 1023.7 hPa | 0 mm | - | 856 W/m² | - |
| 1777198067 | 9.44° C | 54% | 1023.6 hPa | 0 mm | - | 856 W/m² | - |
| 1777198005 | 9.44° C | 53% | 1023.7 hPa | 0 mm | - | 856 W/m² | - |
| 1777197954 | 9.44° C | 53% | 1023.6 hPa | 0 mm | - | 853 W/m² | - |
| 1777197889 | 8.89° C | 54% | 1023.6 hPa | 0 mm | - | 849 W/m² | - |
| 1777197825 | 8.89° C | 53% | 1023.5 hPa | 0 mm | - | 849 W/m² | - |
| 1777197765 | 8.89° C | 53% | 1023.5 hPa | 0 mm | - | 842 W/m² | - |
| 1777197704 | 8.89° C | 53% | 1023.6 hPa | 0 mm | - | 847 W/m² | - |
| 1777197659 | 8.89° C | 57% | 1023.5 hPa | 0 mm | - | 842 W/m² | - |
| 1777197581 | 8.89° C | 57% | 1023.5 hPa | 0 mm | - | 844 W/m² | - |
| 1777197526 | 8.89° C | 56% | 1023.6 hPa | 0 mm | - | 840 W/m² | - |
| 1777197462 | 8.33° C | 55% | 1023.6 hPa | 0 mm | - | 840 W/m² | - |
| 1777197403 | 8.33° C | 55% | 1023.6 hPa | 0 mm | - | 840 W/m² | - |
* Rain latest hour (hover to see other rain measurements)
** Current wind speed in m/s (hover to see current wind gust speed)